GEOEYE 1

Last updated on Mon Sep 21 2026 00:02:45 GMT+0000 (Coordinated Universal Time)

1 33331U 08042A 26263.52030496 .00000198 00000+0 46085-4 0 9999 2 33331 98.1257 336.2997 0005782 112.6993 247.4822 14.64692888964104
UTC large
Height (km)
Speed (km/s)
/
Latitude / Longitude
Inclination (degrees)
Orbital Period (minutes)
Azimuth
Elevation
Range (km)
Doppler Factor

Next 0 passes for location: London (51.5072 / 0.1276)

No passes found over London.
GEOEYE 1